Regional Weather Roundup
Issued by NWS

Home | Current Version | Previous Version | Text Only | Print | Product List | Glossary Off
Versions: 1 2 3 4 5 6 7 8 9 10 11 12 13 14 15 16 17 18 19 20 21 22 23 24 25 26 27 28 29 30 31 32 33 34 35 36 37 38 39 40 41 42 43 44 45 46 47 48 49 50

761
ASUS43 KLMK 290710
RWRKY
KENTUCKY REGIONAL WEATHER ROUNDUP
NATIONAL WEATHER SERVICE LOUISVILLE KY
300 AM EDT THU JUN 29 2017

NOTE "FAIR" INDICATES FEW OR NO CLOUDS BELOW 12,000 FEET
WITH NO SIGNIFICANT WEATHER AND/OR OBSTRUCTIONS TO VISIBILITY.

KYZ001>023-026-027-061>063-070>075-290800-
WESTERN AND SOUTH CENTRAL KENTUCKY

CITY           SKY/WX    TMP DP  RH WIND       PRES   REMARKS
PADUCAH        CLEAR     73  64  73 S3        29.98S
HENDERSON      CLOUDY    72  64  76 S6        29.99F
OWENSBORO      PTCLDY    68  63  84 S7        30.01S
HOPKINSVILLE   CLOUDY    73  63  69 SE7       30.02S
BOWLING GREEN  CLOUDY    70  61  73 S5        30.04F
GLASGOW        CLOUDY    67  57  69 S5        30.06S
$$

KYZ024-025-028>034-038-045-046-053-290800-
NORTH CENTRAL KENTUCKY

CITY           SKY/WX    TMP DP  RH WIND       PRES   REMARKS
LOUISVILLE/SDF CLOUDY    70  57  63 SE7       30.02S
LOUISVILLE/LOU CLOUDY    70  57  63 CALM      30.03F
FORT KNOX      CLOUDY    67  56  69 S5        30.02S
$$

KYZ035>037-039>044-047>052-055>060-089>105-290800-
NORTHEAST KENTUCKY

CITY           SKY/WX    TMP DP  RH WIND       PRES   REMARKS
LEXINGTON      CLOUDY    66  55  67 S6        30.07S
COVINGTON      CLOUDY    63  57  81 S8        30.02F
FRANKFORT      CLOUDY    63  55  75 CALM      30.04S
$$

KYZ054-064>069-076>088-106>120-290800-
SOUTHEAST KENTUCKY

CITY           SKY/WX    TMP DP  RH WIND       PRES   REMARKS
JACKSON        CLEAR     66  57  72 VRB3      30.12S
LONDON         PTCLDY    62  55  77 CALM      30.12S
SOMERSET       CLOUDY    64  55  72 S5        30.11S
MIDDLESBORO    PTCLDY    58  58  99 CALM      30.16R
MONTICELLO     MOSUNNY   70  59  68 E6        30.11S
$$





USA.gov is the U.S. government's official web portal to all federal, state and local government web resources and services.